EW6481 Weather Reports


Display with metric or nautical units.
time (UTC)temp
F
wind
direction
speed
MPH
gust
MPH
rain 1hr
in
rain 24hr
in
rain mn
in
humidity
%
barometer
mb
20260906204827 69 240 2.0 8.0 0.00 0.00 0.00 70 1020.7
20260906203335 69 327 3.0 11.0 0.00 0.00 0.00 72 1020.6
20260906201830 70 93 4.0 7.0 0.00 0.00 0.00 71 1020.5
20260906200341 70 122 4.0 10.0 0.00 0.00 0.00 70 1020.6
20260906194828 70 265 1.0 9.0 0.00 0.00 0.00 72 1020.7
20260906193336 69 310 2.0 8.0 0.00 0.00 0.00 73 1020.8
20260906191844 70 102 2.0 7.0 0.00 0.00 0.00 74 1020.7
20260906190330 70 329 4.0 8.0 0.00 0.00 0.00 73 1020.7
20260906184840 70 80 4.0 11.0 0.00 0.00 0.00 73 1020.7
20260906183351 70 342 4.0 10.0 0.00 0.00 0.00 74 1020.7
20260906181837 69 98 4.0 10.0 0.00 0.00 0.00 73 1020.7
20260906180344 70 318 4.0 8.0 0.00 0.00 0.00 71 1020.6
20260906174832 70 82 3.0 9.0 0.00 0.00 0.00 71 1020.6
20260906173340 70 44 3.0 9.0 0.00 0.00 0.00 74 1020.6
20260906171833 69 98 6.0 12.0 0.00 0.00 0.00 73 1020.7
20260906170339 69 332 3.0 5.0 0.00 0.00 0.00 79 1020.7
20260906164830 69 314 1.0 6.0 0.00 0.00 0.00 80 1020.7
20260906163357 70 5 327.0 327.0 0.00 0.00 0.00 75 1020.4
20260906161827 69 325 2.0 8.0 0.00 0.00 0.00 78 1020.6
20260906160333 69 50 4.0 8.0 0.00 0.00 0.00 77 1020.8
20260906160020 69 91 1.0 5.0 0.00 0.00 0.00 77 1020.1
20260906154915 70 332 2.0 5.0 0.00 0.00 0.00 77 1020.6
20260906154609 69 355 1.0 5.0 0.00 0.00 0.00 77 1020.0
20260906153352 70 351 3.0 6.0 0.00 0.00 0.00 78 1020.5
20260906151833 69 81 2.0 11.0 0.00 0.00 0.00 81 1020.4
20260906150338 70 62 3.0 8.0 0.00 0.00 0.00 79 1020.5
20260906144832 68 52 2.0 6.0 0.00 0.00 0.00 83 1020.4
20260906143331 68 62 2.0 8.0 0.00 0.00 0.00 83 1020.3
20260906141828 67 348 3.0 5.0 0.00 0.00 0.00 87 1020.3
20260906140354 67 90 3.0 8.0 0.00 0.00 0.00 87 1020.2
20260906134843 67 341 3.0 12.0 0.00 0.00 0.00 87 1019.9
20260906133335 67 111 2.0 11.0 0.00 0.00 0.00 90 1019.8
20260906131828 66 72 3.0 9.0 0.00 0.00 0.00 93 1019.8
20260906130357 66 328 1.0 7.0 0.00 0.00 0.00 97 1019.7
20260906124829 65 360 1.0 3.0 0.00 0.00 0.00 98 1019.7
20260906123333 65 297 1.0 2.0 0.00 0.00 0.00 99 1019.4
20260906121843 64 297 0.0 3.0 0.00 0.00 0.00 100 1019.5
20260906120330 62 178 0.0 0.0 0.00 0.00 0.00 99 1019.4
20260906114826 60 178 0.0 0.0 0.00 0.00 0.00 99 1019.2
20260906113335 58 178 0.0 0.0 0.00 0.00 0.00 99 1018.9
20260906111844 58 178 0.0 0.0 0.00 0.00 0.00 98 1018.9
20260906110336 58 178 0.0 0.0 0.00 0.00 0.00 99 1018.8
20260906104828 57 178 0.0 0.0 0.00 0.00 0.00 99 1018.7
20260906103336 57 178 0.0 0.0 0.00 0.00 0.00 98 1018.3
20260906101833 57 178 0.0 0.0 0.00 0.00 0.00 98 1018.2
20260906100340 57 178 0.0 0.0 0.00 0.00 0.00 98 1018.1
20260906094832 58 178 0.0 0.0 0.00 0.00 0.00 98 1018.0
20260906093327 58 178 0.0 0.0 0.00 0.00 0.00 98 1017.9
20260906091842 58 178 0.0 0.0 0.00 0.00 0.00 98 1017.9
20260906090349 58 178 0.0 0.0 0.00 0.00 0.00 98 1017.5
20260906084900 59 178 0.0 0.0 0.00 0.00 0.00 98 1017.4
20260906083330 59 178 0.0 0.0 0.00 0.00 0.00 98 1017.2
20260906081841 59 178 0.0 0.0 0.00 0.00 0.00 98 1017.1
20260906080329 60 178 0.0 0.0 0.00 0.00 0.00 97 1017.2
20260906074901 60 178 0.0 0.0 0.00 0.00 0.00 98 1017.2
20260906073331 60 178 0.0 0.0 0.00 0.00 0.00 98 1017.1
20260906071842 60 178 0.0 0.0 0.00 0.00 0.00 98 1016.9
20260906070332 61 178 0.0 0.0 0.00 0.00 0.00 97 1017.0
20260906064850 61 178 0.0 0.0 0.00 0.00 0.00 97 1017.0
20260906063338 61 178 0.0 0.0 0.00 0.00 0.00 98 1017.1
20260906061832 61 178 0.0 0.0 0.00 0.00 0.00 97 1017.1
20260906060331 61 178 0.0 0.0 0.00 0.00 0.00 98 1017.1
20260906054832 61 178 0.0 0.0 0.00 0.00 0.00 98 1017.2
20260906053338 61 178 0.0 0.0 0.00 0.00 0.00 97 1017.2
20260906051851 61 178 0.0 0.0 0.00 0.00 0.00 97 1017.1
20260906050334 61 178 0.0 0.0 0.00 0.00 0.00 97 1017.2
20260906044828 61 178 0.0 0.0 0.00 0.00 0.00 97 1017.2
20260906043337 61 178 0.0 0.0 0.00 0.00 0.00 97 1017.1
20260906041834 61 178 0.0 1.0 0.00 0.00 0.00 97 1016.9
20260906040340 60 178 0.0 0.0 0.00 0.00 0.00 96 1016.9
20260906034833 61 178 0.0 0.0 0.00 0.00 0.00 96 1017.0
20260906033341 61 178 0.0 0.0 0.00 0.00 0.00 96 1016.9
20260906031837 61 178 0.0 0.0 0.00 0.00 0.00 95 1016.8
20260906030327 62 178 0.0 0.0 0.00 0.00 0.00 95 1016.9
20260906024835 63 178 0.0 0.0 0.00 0.00 0.00 95 1016.7
20260906023345 63 178 0.0 0.0 0.00 0.00 0.00 94 1016.7
20260906021837 64 178 0.0 0.0 0.00 0.00 0.00 94 1016.7
20260906020341 64 178 0.0 0.0 0.00 0.00 0.00 94 1016.6
20260906014836 65 178 0.0 0.0 0.00 0.00 0.00 93 1016.5
20260906013340 65 178 0.0 0.0 0.00 0.00 0.00 93 1016.4
20260906011832 65 178 0.0 0.0 0.00 0.00 0.00 93 1016.3
20260906010356 65 178 0.0 0.0 0.00 0.00 0.00 93 1016.3
20260906004828 66 178 0.0 0.0 0.00 0.00 0.00 92 1016.4
20260906003336 66 178 0.0 0.0 0.00 0.00 0.00 91 1016.0
20260906001829 66 178 0.0 0.0 0.00 0.00 0.00 90 1016.1
20260906000342 67 178 0.0 0.0 0.00 0.00 0.00 88 1016.1
20260905234834 68 178 0.0 0.0 0.00 0.00 0.00 85 1016.2
20260905233331 69 178 0.0 0.0 0.00 0.00 0.00 83 1016.2
20260905231827 70 178 1.0 2.0 0.00 0.00 0.00 80 1016.2
20260905230355 71 203 1.0 2.0 0.00 0.00 0.00 77 1016.3
20260905224903 73 152 0.0 3.0 0.00 0.00 0.00 76 1016.2
20260905223330 74 44 1.0 3.0 0.00 0.00 0.00 72 1016.1
20260905221849 74 355 0.0 2.0 0.00 0.00 0.00 71 1016.1
20260905220357 74 280 1.0 3.0 0.00 0.00 0.00 69 1016.0
20260905214829 75 17 1.0 3.0 0.00 0.00 0.00 69 1016.0
20260905213329 75 327 1.0 4.0 0.00 0.00 0.00 70 1015.8
20260905211828 76 51 1.0 5.0 0.00 0.00 0.00 67 1015.6
20260905210336 76 300 1.0 3.0 0.00 0.00 0.00 66 1015.6